Location: Faude
(50.6996°N, 1.7461°E)
Time: 00:01:56
(UTC+00:00)

Daily predictions for brighter satellites

Satellite Brightness Start Highest point End
(mag) Time Altitude Azimuth Time Altitude Azimuth Time Altitude Azimuth
Cosmos 1943 Rocket 4.4 03:12:50 21° NE 03:12:50 21° NE 03:14:51 10° NE
CENTAUR R/B 3.2 03:44:24 54° ENE 03:44:24 54° ENE 03:50:07 10° NE
Cosmos 2278 Rocket 4.4 03:51:48 16° NNE 03:51:48 16° NNE 03:52:59 10° NNE
NOSS 3-2 (A) 3.9 04:04:16 53° NNE 04:04:16 53° NNE 04:09:25 10° NE
NOSS 3-2 (C) 3.5 04:12:49 71° E 04:12:49 71° E 04:18:56 10° NE
Meteor 2-3 Rocket 4.3 04:20:25 49° NNE 04:20:25 49° NNE 04:24:34 10° NNE
BREEZE-M DEB (TANK) 4.2 04:21:03 36° S 04:21:03 36° S 04:28:32 10° SE
Cosmos 968 Rocket 4.2 04:27:18 46° NNE 04:27:18 46° NNE 04:30:55 10° NNE
Cosmos 2297 Rocket 4.4 04:25:42 14° N 04:28:18 18° NNE 04:32:09 10° ENE
Cosmos 2098 Rocket 3.9 04:32:19 26° SSE 04:34:38 54° E 04:39:54 10° NNE
Cosmos 2369 Rocket 2.3 04:34:16 50° S 04:35:38 70° ESE 04:41:15 10° NNE
Cosmos 2344 3.4 04:34:44 60° WNW 04:35:43 66° NW 04:43:54 10° NE
USA 238 DEB 3.5 04:39:34 67° W 04:40:20 75° NW 04:47:20 10° NE
SL-19 R/B 4.1 04:34:50 10° SSE 04:40:25 89° WSW 04:41:27 61° NNW
USA 238 3.5 04:39:38 67° W 04:40:26 75° NW 04:47:26 10° NE
Cosmos 2279 Rocket 4.1 04:34:42 10° N 04:40:55 72° E 04:47:06 10° SSE
Cosmos 1656 Rocket 4.1 04:37:55 21° S 04:41:25 58° ESE 04:46:47 10° NE
COSMO-SKYMED 1 2.9 04:38:37 10° SSE 04:42:51 62° ENE 04:42:51 62° ENE
H-2A R/B 4.2 04:39:50 10° NNE 04:46:53 11° S 04:47:00 10° S
Meteor 1-31 Rocket 4.5 04:40:22 10° NNE 04:43:57 33° E 04:47:31 10° SSE
USA 215 3.2 04:38:32 10° ESE 04:45:04 84° NNE 04:46:50 53° NW
Cosmos 1943 Rocket 2.7 04:54:24 43° NNW 04:54:24 43° NNW 04:58:51 10° NNE
CZ-2C R/B 2.6 04:49:03 10° SSE 04:54:31 84° ENE 04:57:37 26° NNW
Kosmos-917 4.1 04:57:03 62° NE 04:57:03 62° NE 05:01:43 10° NE
Cosmos 1634 Rocket 3.9 04:58:14 43° NW 05:00:02 58° W 05:06:06 10° S
Gblst 52 Del rocket 4.4 04:59:59 54° W 05:01:32 86° N 05:08:26 10° E
Cosmos 2227 Rocket 4.2 05:00:32 11° N 05:04:26 21° NE 05:08:42 10° E
Cosmos 1862 3.5 05:07:19 61° NNE 05:07:19 61° NNE 05:10:39 10° N
SKYMED 3 4.4 05:02:40 10° S 05:07:00 78° WSW 05:07:16 74° WNW
Cosmos 1515 Rocket 3.9 05:06:34 21° N 05:09:25 63° ENE 05:13:44 10° SSE
Landsat 5 3.5 05:06:16 10° SSE 05:10:47 89° ENE 05:12:33 37° NNW
SJ 16-02 3.2 05:09:16 10° SSE 05:13:07 31° ESE 05:16:58 10° NE
Tsikada Rocket 4.3 05:16:30 40° W 05:17:04 41° WNW 05:23:02 10° N
BREEZE-M DEB (TANK) 2.7 05:16:52 65° SW 05:17:16 76° S 05:24:12 10° E
Meteor 2-8 Rocket 4.3 05:16:49 10° NNW 05:22:58 73° W 05:29:03 10° S
COSMOS 2487 3.6 05:23:41 26° N 05:25:05 39° ENE 05:28:15 10° SE
Cosmos 2297 4.4 05:26:26 32° NW 05:26:30 32° NW 05:31:38 10° NNE
CZ-4C R/B 2.7 05:23:39 10° SSE 05:26:27 69° S 05:26:27 69° S
SJ-12 3.9 05:25:30 10° N 05:29:36 61° WNW 05:33:40 10° SSW
SKYMED 2 3.8 05:26:51 10° S 05:31:01 46° W 05:31:28 44° W
CZ-2C R/B 4.0 05:26:44 10° NNE 05:31:27 48° E 05:36:22 10° S
MOS 1-B Rocket 4.3 05:25:58 10° SSW 05:31:39 40° W 05:33:51 29° NW
Cosmos 2180 Rocket 4.4 05:26:59 10° NNW 05:33:06 65° W 05:39:09 10° S
Cosmos 2278 Rocket 4.1 05:33:39 14° NNW 05:33:39 14° NNW 05:36:15 10° N
Cosmos 783 Rocket 4.5 05:31:02 30° NW 05:33:30 60° WSW 05:38:36 10° S
CENTAUR R/B 3.1 05:31:36 31° WNW 05:34:09 44° NNW 05:41:25 10° NE
FALCON 9 DEB 3.1 05:37:32 49° NNE 05:37:32 49° NNE 05:40:14 10° E
CZ-4B R/B 3.9 05:36:00 10° NNE 05:39:25 42° E 05:42:51 10° S
FALCON 9 DEB 3.0 05:40:01 51° N 05:40:01 51° N 05:42:46 10° E
Cosmos 1503 Rocket 3.9 05:34:47 10° SSW 05:40:03 69° WNW 05:45:26 10° NNE
FALCON 9 DEB 3.0 05:40:11 52° N 05:40:11 52° N 05:42:58 10° E
Meteor 1-27 Rocket 3.7 05:34:42 10° NNW 05:40:23 85° W 05:46:08 10° S
ATLAS 5 CENTAUR R/B 2.7 05:37:00 10° SSW 05:40:38 41° ESE 05:44:43 10° NE
Cosmos 1151 Rocket 4.5 05:42:26 21° SW 05:42:26 21° SW 05:44:26 10° SSW
Meteor PRIRODA 4.3 05:40:43 10° NNE 05:44:17 56° E 05:47:52 10° S
H-2A R/B 2.4 05:40:32 10° SSE 05:44:47 65° ENE 05:49:11 10° N
Cosmos 1486 Rocket 4.4 05:44:08 21° WSW 05:47:14 40° WNW 05:52:13 10° NNE
Cosmos 1777 Rocket 4.3 05:42:15 10° SSW 05:47:26 71° ESE 05:52:41 10° NNE
USA 32 4.4 05:42:32 10° N 05:47:47 69° E 05:53:01 10° SSE
Cosmos 773 Rocket 4.1 05:45:01 23° NW 05:48:01 51° WSW 05:52:59 10° S
Lacrosse 4 Rocket 3.5 05:46:32 10° NNW 05:49:52 21° NE 05:53:21 10° E
Cosmos 1515 3.8 05:48:57 10° N 05:52:45 73° ENE 05:56:34 10° SSE
NOSS 3-2 (A) 4.4 05:51:40 23° WNW 05:54:32 34° NNW 06:00:56 10° NE
SL-27 R/B 3.1 05:54:53 33° W 05:55:27 35° WSW 05:58:43 10° S
Cosmos 1340 Rocket 2.9 05:51:55 10° S 05:55:52 76° E 05:59:54 10° NNE
Okean 3 Rocket 4.1 05:52:20 10° SW 05:56:32 36° WNW 06:00:45 10° N
Cosmos 1766 Rocket 4.3 05:55:38 10° SW 05:59:27 29° WNW 06:03:16 10° N
Envisat 3.4 05:57:32 10° N 06:02:14 39° WNW 06:06:55 10° SW
NOSS 3-2 (C) 4.1 06:00:16 21° W 06:03:51 39° NNW 06:10:22 10° NE
ATLAS 3B R/B 3.2 05:57:41 10° SSW 06:04:07 62° SE 06:10:54 10° NE
FALCON 9 DEB 3.0 06:03:14 34° NW 06:04:10 52° N 06:07:00 10° E
DMSP B5D2-2 4.1 05:59:08 10° S 06:04:17 61° WSW 06:09:28 10° NNW
Cosmos 158 Rocket 3.9 06:04:32 11° NNW 06:09:24 71° WSW 06:14:36 10° SSE
Cosmos 1939 Rocket 2.9 06:09:19 10° NNE 06:13:17 77° ESE 06:17:09 10° S
Cosmos 2297 Rocket 2.6 06:07:54 10° NNW 06:13:33 62° ENE 06:19:09 10° SE
PSLV R/B 4.5 06:10:57 10° SSE 06:14:57 60° ENE 06:19:01 10° N
FALCON 9 DEB 3.3 06:13:35 23° WNW 06:15:29 56° N 06:18:50 10° E
Cosmos 2098 Rocket 4.5 06:12:46 11° WSW 06:16:13 23° WNW 06:20:29 10° N
H-2A R/B 4.0 06:14:34 10° NNW 06:21:57 - SW 06:17:13 19° WNW
Cosmos 1174 3.0 06:14:32 10° SW 06:17:31 89° ESE 06:20:46 10° NE
Meteor 1-31 Rocket 3.7 06:14:56 10° N 06:18:13 26° WNW 06:21:29 10° WSW
COSMO-SKYMED 1 4.0 06:16:37 10° SW 06:19:28 17° W 06:20:04 17° W
Cosmos 2369 Rocket 3.1 06:16:09 13° W 06:20:11 28° NW 06:25:00 10° NNE
Cosmos 1607 3.9 06:17:00 13° NW 06:22:42 74° SW 06:28:50 10° SSE
Cosmos 1656 Rocket 4.3 06:20:33 10° WSW 06:25:21 31° NW 06:30:13 10° NNE
CZ-4B R/B 1.3 06:22:36 10° SSE 06:25:55 88° W 06:29:11 10° NNW
Okean 1 3.2 06:24:30 10° NNW 06:28:28 81° W 06:32:24 10° S
USA 215 3.9 06:22:26 10° SSE 06:28:30 40° SW 06:34:11 12° WNW
Cosmos 1408 Rocket 4.3 06:28:07 10° SW 06:31:51 28° WNW 06:35:37 10° N
USA 238 DEB 4.5 06:27:02 13° WNW 06:32:22 34° NNW 06:38:46 10° NE
USA 238 4.5 06:27:06 13° WNW 06:32:27 34° NNW 06:38:52 10° NE
CZ-2D R/B 3.9 06:28:55 10° NNE 06:32:41 60° E 06:36:26 10° S
Cosmos 2263 Rocket 4.0 06:30:55 10° NNW 06:35:16 22° NE 06:39:37 10° E
CZ-2C R/B 4.1 06:31:59 10° SW 06:35:28 17° W 06:38:56 10° NW
Meteor 1-18 Rocket 4.3 06:29:52 10° NNW 06:35:47 89° W 06:41:32 10° S
NOAA 12 4.1 06:32:06 10° N 06:37:19 63° WNW 06:42:30 10° SSW
Cosmos 1943 Rocket 3.8 06:35:57 12° WNW 06:38:35 15° NNW 06:41:52 10° N
FengYun 1-2 T 4.2 06:33:16 10° NNE 06:38:46 76° WNW 06:44:14 10° SSW
Nadezhda 4 Rocket 4.3 06:33:13 10° SW 06:39:04 43° WNW 06:45:03 10° N
Cosmos 2228 Rocket 3.5 06:36:43 10° NNW 06:40:59 44° W 06:45:17 10° SSW
Cosmos 1743 Rocket 4.0 06:37:27 10° SW 06:41:34 39° WNW 06:45:42 10° N
Cosmos 724 4.4 06:36:10 10° NW 06:42:07 81° NE 06:47:56 10° SE
Alouette 2 Rocket 4.2 06:41:35 10° NW 06:44:47 26° W 06:47:48 10° SSW
CORIOLIS 4.2 06:39:21 10° NNE 06:44:51 89° WNW 06:50:18 10° SSW
Meteor 2-4 Rocket 4.0 06:40:11 10° NNW 06:46:10 83° ENE 06:52:01 10° SSE
Cosmos 1378 4.0 06:44:33 10° N 06:48:13 51° ENE 06:51:51 10° SSE
Cosmos 2227 Rocket 2.3 06:43:43 10° NNW 06:49:24 80° ENE 06:55:04 10° SSE
SJ 16-02 1.9 06:47:36 10° SW 06:51:37 35° WNW 06:55:40 10° N
ADEOS 4.3 06:47:05 10° N 06:51:39 31° WNW 06:56:12 10° WSW
Cosmos 2344 4.5 06:44:57 10° WNW 06:51:53 36° N 07:00:15 10° ENE
Cosmos 1666 Rocket 3.8 06:48:15 10° S 06:52:43 82° E 06:57:14 10° NNE
Cosmos 1092 Rocket 4.2 06:50:33 10° SSW 06:56:39 53° WNW 07:02:51 10° N
Meteor 1-20 Rocket 4.4 06:52:30 10° SSW 06:57:55 50° WNW 07:03:31 10° N
Meteor 1-19 Rocket 4.5 06:53:17 10° NNW 06:58:38 47° W 07:03:50 10° SSW
Cosmos 1602 4.3 06:55:34 10° SW 06:59:04 34° WNW 07:02:37 10° N
COSMOS 2487 4.1 06:57:14 10° WNW 06:59:25 16° W 07:01:35 10° SW
ARGOS 4.1 06:55:25 10° NNE 07:00:42 54° E 07:05:55 10° S
CZ-4B DEB 4.2 06:55:56 10° NNE 07:01:26 82° WNW 07:06:53 10° SSW
Cosmos 1656 4.1 06:56:19 10° SSW 07:01:41 69° ESE 07:07:08 10° NNE
BREEZE M DEB (TANK) 3.1 06:59:15 10° W 07:01:43 29° SSW 07:03:34 10° SE
Cosmos 1689 Rocket 3.0 07:00:11 10° SE 07:02:39 41° ENE 07:05:09 10° N
CZ-4 R/B 3.7 07:01:19 10° NE 07:04:41 27° E 07:07:59 10° SSE
